Belfast Harbour, United Kingdom

12:08 PM BST on April 29, 2017 (GMT +0100)
Belfast City

Weather History for EGAC - May, 2013

Change the Weather History Date:

Monday, May 13, 2013

  Actual Average Record
Temperature  
Mean Temperature 44 °F -  
Max Temperature 50 °F 57 °F 68 °F (2001)
Min Temperature 39 °F 47 °F 39 °F (2013)
Degree Days  
Heating Degree Days 20    
Moisture  
Dew Point 38 °F    
Average Humidity 74    
Maximum Humidity 93    
Minimum Humidity 58    
Precipitation  
Precipitation 0.00 in - - ()
Sea Level Pressure  
Sea Level Pressure 29.65 in    
Wind  
Wind Speed 15 mph ()    
Max Wind Speed 23 mph    
Max Gust Speed 40 mph    
Visibility 6.2 miles    
Events Rain    
Averages and records for this station are not official NWS values.
T = Trace of Precipitation, MM = Missing Value Source: Averaged Metar Reports

Daily Weather History Graph

Daily Weather History Graph

Search for Another Location

Airport or City:

Trip Planner

Search our weather history database for the weather conditions in past years. The results will help you decide how hot, cold, wet, or windy it might be!

Date:

Astronomy

May. 13, 2013 Rise Set
Actual Time 5:21 AM IST 9:19 PM IST
Civil Twilight 4:35 AM IST 10:06 PM IST
Nautical Twilight 3:28 AM IST 11:13 PM IST
Astronomical Twilight 1:52 AM IST 12:47 AM IST
Moon 7:50 AM IST (5/13) No Moon Set
Length of Visible Light 17h 31m
Length of Day
15h 58m
Waxing Crescent, 11% of the Moon is Illuminated
May 13
Waxing Crescent
May 18
First Quarter
May 25
Full
May 31
Last Quarter
Jun 8
New

Hourly Weather History & Observations

Time (IST) Temp. Windchill Dew Point Humidity Pressure Visibility Wind Dir Wind Speed Gust Speed Precip Events Conditions
6:20 AM 39.2 °F 31.2 °F 37.4 °F 93% 29.71 in 6.2 mi SSW 13.8 mph - N/A   Mostly Cloudy
6:50 AM 41.0 °F 33.9 °F 35.6 °F 81% 29.71 in 6.2 mi SW 12.7 mph - N/A   Scattered Clouds
7:20 AM 41.0 °F 33.5 °F 37.4 °F 87% 29.68 in 6.2 mi SW 13.8 mph - N/A   Scattered Clouds
7:50 AM 42.8 °F 35.8 °F 37.4 °F 81% 29.68 in 6.2 mi SW 13.8 mph - N/A   Unknown
8:20 AM 42.8 °F 34.8 °F 37.4 °F 81% 29.68 in 6.2 mi WSW 17.3 mph - N/A Rain Light Rain Showers
8:50 AM 44.6 °F 36.9 °F 35.6 °F 71% 29.68 in 6.2 mi WSW 18.4 mph - N/A   Scattered Clouds
9:20 AM 44.6 °F 37.8 °F 37.4 °F 76% 29.68 in 6.2 mi WSW 15.0 mph - N/A Rain Light Rain Showers
9:50 AM 46.4 °F 39.0 °F 37.4 °F 71% 29.68 in 6.2 mi WSW 19.6 mph - N/A   Scattered Clouds
10:20 AM 48.2 °F - 35.6 °F 62% 29.65 in 6.2 mi WSW 23.0 mph - N/A Rain Light Rain Showers
10:50 AM 46.4 °F 39.0 °F 37.4 °F 71% 29.65 in 6.2 mi WSW 19.6 mph 32.2 mph N/A   Scattered Clouds
11:20 AM 46.4 °F 39.0 °F 39.2 °F 76% 29.65 in 6.2 mi WSW 19.6 mph - N/A Rain Light Rain Showers
11:50 AM 42.8 °F 34.3 °F 37.4 °F 81% 29.68 in 6.2 mi SW 19.6 mph - N/A Rain Light Rain Showers
12:20 PM 46.4 °F 41.9 °F 39.2 °F 76% 29.65 in 6.2 mi WSW 9.2 mph - N/A   Scattered Clouds
12:50 PM 48.2 °F - 37.4 °F 66% 29.65 in 6.2 mi WSW 11.5 mph 25.3 mph N/A   Partly Cloudy
1:20 PM 44.6 °F 36.4 °F 37.4 °F 76% 29.65 in 6.2 mi WSW 20.7 mph 40.3 mph N/A   Partly Cloudy
1:50 PM 50.0 °F - 37.4 °F 62% 29.62 in 6.2 mi West 15.0 mph - N/A   Partly Cloudy
2:20 PM 50.0 °F - 35.6 °F 58% 29.62 in 6.2 mi WSW 19.6 mph 35.7 mph N/A Rain Light Rain Showers
2:50 PM 48.2 °F - 39.2 °F 71% 29.62 in 6.2 mi WSW 21.9 mph - N/A   Scattered Clouds
3:20 PM 46.4 °F 40.1 °F 39.2 °F 76% 29.62 in 6.2 mi West 15.0 mph 26.5 mph N/A   Scattered Clouds
3:50 PM 50.0 °F - 39.2 °F 66% 29.62 in 6.2 mi West 21.9 mph 34.5 mph N/A   Partly Cloudy
4:20 PM 42.8 °F 35.1 °F 37.4 °F 81% 29.62 in 6.2 mi WSW 16.1 mph 27.6 mph N/A Rain Rain Showers
4:50 PM 48.2 °F - 39.2 °F 71% 29.62 in 6.2 mi WSW 17.3 mph 29.9 mph N/A   Scattered Clouds
5:20 PM 44.6 °F 37.2 °F 39.2 °F 81% 29.62 in 6.2 mi WSW 17.3 mph 35.7 mph N/A Rain Rain Showers
5:50 PM 44.6 °F 36.1 °F 35.6 °F 71% 29.62 in 6.2 mi WSW 21.9 mph 36.8 mph N/A   Scattered Clouds
6:20 PM 48.2 °F - 37.4 °F 66% 29.62 in 6.2 mi WSW 15.0 mph - N/A   Partly Cloudy
6:50 PM 50.0 °F - 37.4 °F 62% 29.62 in 6.2 mi WSW 16.1 mph 27.6 mph N/A   Partly Cloudy
7:20 PM 44.6 °F 37.2 °F 39.2 °F 81% 29.65 in 6.2 mi West 17.3 mph - N/A Rain Rain Showers
7:50 PM 46.4 °F 39.8 °F 37.4 °F 71% 29.62 in 6.2 mi WSW 16.1 mph 27.6 mph N/A   Partly Cloudy
8:20 PM 46.4 °F 40.1 °F 37.4 °F 71% 29.62 in 6.2 mi SW 15.0 mph - N/A   Partly Cloudy
8:50 PM 46.4 °F 40.4 °F 37.4 °F 71% 29.62 in 6.2 mi WSW 13.8 mph - N/A   Partly Cloudy